STARLINK-35718

Last updated on Fri Dec 19 2025 00:02:08 GMT+0000 (Coordinated Universal Time)

1 66894U 25283S 25352.58336806 -.01469623 00000+0 -94774-2 0 9994 2 66894 53.1553 44.3724 0001367 68.4259 86.6228 15.78291517 3362
UTC large
Height (km)
Speed (km/s)
/
Latitude / Longitude
Inclination (degrees)
Orbital Period (minutes)
Azimuth
Elevation
Range (km)
Doppler Factor

Next 0 passes for location: London (51.5072 / 0.1276)

Sorry there are no passes over London.